Regional Weather Roundup
Issued by NWS

Home | Current Version | Previous Version | Graphics & Text | Print | Product List | Glossary On
Versions: 1 2 3 4 5 6 7 8 9 10 11 12 13 14 15 16 17 18 19 20 21 22 23 24 25 26 27 28 29 30 31 32 33 34 35 36 37 38 39 40 41 42 43 44 45 46 47 48 49 50
505
ASUS43 KLOT 260603
RWRIL

ILLINOIS REGIONAL WEATHER ROUNDUP
NATIONAL WEATHER SERVICE CHICAGO/ROMEOVILLE IL
100 AM CDT THU MAY 26 2016

NOTE: "FAIR" INDICATES FEW OR NO CLOUDS BELOW 12,000 FEET WITH NO
SIGNIFICANT WEATHER AND/OR OBSTRUCTIONS TO VISIBILITY.

* THESE STATIONS ARE NOT UNDER NWS QUALITY CONTROL. THEY ALSO MAY NOT
  REPORT WEATHER SUCH AS PRECIPITATION OR FOG.

ILZ001-002-007-009-015-016-024-260700-
NORTHWEST ILLINOIS

CITY           SKY/WX    TMP DP  RH WIND       PRES   REMARKS
MOLINE         MOCLDY    75  63  66 S9        29.88F
6HR MIN TEMP:  69; 6HR MAX TEMP:  83;

$$

ILZ003-004-008-010-011-017-018-260700-
NORTH CENTRAL ILLINOIS

CITY           SKY/WX    TMP DP  RH WIND       PRES   REMARKS
ROCKFORD       PTCLDY    67  64  90 SE6       29.93S
6HR MIN TEMP:  67; 6HR MAX TEMP:  73;

FREEPORT*      PTCLDY    63  60  91 CALM      29.92S
$$

ILZ005-006-012>014-019>023-260700-
NORTHEAST ILLINOIS

CITY           SKY/WX    TMP DP  RH WIND       PRES   REMARKS
CHICAGO-OHARE  MOCLDY    65  63  93 SE10      29.93F
6HR MIN TEMP:  65; 6HR MAX TEMP:  68; 6HR PCP:  0.16;

CHICAGO-MIDWAY CLEAR     65  61  87 E6        29.94F
6HR MIN TEMP:  65; 6HR MAX TEMP:  69; 6HR PCP:  0.17;

AURORA         PTCLDY    67  64  90 SE5       29.93F
6HR MIN TEMP:  66; 6HR MAX TEMP:  70; 6HR PCP:  0.02;

LANSING*       CLEAR     64  60  88 E5        29.95F
WAUKEGAN       PTCLDY    66  65  96 S8        29.91F
6HR MIN TEMP:  63; 6HR MAX TEMP:  67; 6HR PCP:  0.42;

DUPAGE AIRPORT CLOUDY    67  64  90 SE9       29.92F FOG
6HR MIN TEMP:  66; 6HR MAX TEMP:  67; 6HR PCP:  0.10;

WHEELING       MOCLDY    65  64  97 S9        29.93F
6HR MIN TEMP:  65; 6HR MAX TEMP:  68; 6HR PCP:  0.65;

NORTHERLY ISL    N/A     58  57  97 SE1         N/A
NORTHERLY ISL    N/A     58  57  97 SE1         N/A
$$

LMZ740>746-260700-
SOUTHERN LAKE MICHIGAN

STATION/POSITION SKY/WX   TEMP    WIND        PRES    VSBY  WAVE
                          AIR SEA DIR/SP/G                  HT/PER
                          (F)     (DEG/KT/KT) (MB)    (MI)  (FT/S)
SOUTHERN BUOY              55 49  140/ 14/ 16 1012.9          1/ 3
WILMETTE HARBOR            58 56  190/  6/  8   N/A           1/ 2
HARRISON CRIB              60     170/ 15/ 17   N/A
BURNHAM HARBOR             59     150/  1/  6   N/A
CALUMET HARBOR             63      80/  9/ 14 1014.1F
BURNS HARBOR               66     100/  6/  9 1015.2F
MICHIGAN CITY              64      70/  9/ 11   N/A
MICHIGAN CITY 6N           61 59   90/  8/ 12   N/A           1/ 3
ST. JOSEPH                 62 59   60/  6/  8   N/A           2/ 3
$$

ILZ025>027-034>036-040-047-049-050-058-095>099-260700-
WEST-CENTRAL ILLINOIS

CITY           SKY/WX    TMP DP  RH WIND       PRES   REMARKS
QUINCY         CLEAR     72  64  76 S8        29.91F
MACOMB*        PTCLDY    72  64  77 S9        29.94S
$$

ILZ028>032-037-038-041>044-048-051>054-059>061-260700-
CENTRAL ILLINOIS

CITY           SKY/WX    TMP DP  RH WIND       PRES   REMARKS
BLOOMINGTON    CLEAR     69  68  97 S9        29.96F
DECATUR        CLEAR     70  66  87 SW13      29.96F
PEORIA         CLEAR     70  65  84 S7        29.93S
6HR MIN TEMP:  70; 6HR MAX TEMP:  81;

SPRINGFIELD    CLEAR     72  66  81 S10       29.95S
6HR MIN TEMP:  72; 6HR MAX TEMP:  81;

TAYLORVILLE    NOT AVBL
$$

ILZ033-039-045-046-055>057-062-063-260700-
EAST-CENTRAL ILLINOIS

CITY           SKY/WX    TMP DP  RH WIND       PRES   REMARKS
CHAMPAIGN      CLOUDY    70  66  87 S8        29.98S
MATTOON        MOCLDY    70  65  84 S12       29.97F
$$

ILZ079-100>102-260700-
SOUTHWEST ILLINOIS

CITY           SKY/WX    TMP DP  RH WIND       PRES   REMARKS
CAHOKIA*       CLEAR     72  66  81 S3        29.97S
SPARTA*        PTCLDY    68  65  92 S10G18    30.01F
$$

ILZ064>066-069>071-074>076-080>082-084>086-088>090-092>094-260700-
SOUTH-CENTRAL ILLINOIS

CITY           SKY/WX    TMP DP  RH WIND       PRES   REMARKS
CARBONDALE     MOCLDY    67  63  87 SW10      30.02F
6HR MIN TEMP:  67; 6HR MAX TEMP:  74;

MT. VERNON     MOCLDY    66  61  82 SW7       30.03S
SALEM*         CLEAR     69  65  87 S6        30.00F
$$

ILZ067-068-072-073-078-083-087-091-260700-
SOUTHEAST ILLINOIS

CITY           SKY/WX    TMP DP  RH WIND       PRES   REMARKS
LAWRENCEVILLE  MOCLDY    68  65  90 S8        30.02S
FLORA*         CLOUDY    68  66  94 S7        30.01S
HARRISBURG*    MOCLDY    67  65  93 CALM      30.04S
ROBINSON*      MOCLDY    67  65  92 S5        30.03S
$$

ABBREVIATIONS USED IN REMARKS
   TC - TEMPERATURE IN CELSIUS
  WCI - WIND CHILL INDEX
   HX - HEAT INDEX
  VSB - VISIBILITY
$$





USA.gov is the U.S. government's official web portal to all federal, state and local government web resources and services.